Location: Bishop�s Knoyle
(51.0728°N, 2.1714°W)
Time: 14:12:08
(UTC+00:00)

X-37B - Visible Passes

Search period start: 20 September 2021 00:00
Search period end: 30 September 2021 00:00
Orbit: 381 x 393 km, 45.0° (Epoch: 29 August)

Date Brightness Start Highest point End Pass type
(mag) Time Alt. Az. Time Alt. Az. Time Alt. Az.
22 Sep 3.3 04:56:53 10° S 04:58:17 12° SSE 04:59:41 10° SE visible
24 Sep 2.8 04:36:10 12° SSW 04:37:53 17° SSE 04:40:01 10° ESE visible
25 Sep 3.4 03:40:29 12° SE 03:40:29 12° SE 03:41:09 10° SE visible
25 Sep 2.2 05:13:03 10° SW 05:15:43 25° S 05:18:24 10° ESE visible
26 Sep 2.3 04:17:04 21° S 04:17:31 21° SSE 04:20:00 10° ESE visible
27 Sep 3.7 03:21:20 11° ESE 03:21:20 11° ESE 03:21:29 10° ESE visible
27 Sep 2.0 04:53:37 16° SW 04:55:24 27° S 04:58:09 10° ESE visible
28 Sep 2.4 03:57:54 23° SSE 03:57:54 23° SSE 03:59:51 10° ESE visible
28 Sep 2.2 05:30:42 10° WSW 05:33:19 24° S 05:35:56 10° SE visible
29 Sep 1.9 04:34:29 24° SSW 04:35:06 26° S 04:37:49 10° SE visible
